Location: Baia Mare
(47.6567°N, 23.5850°E)
Time: 12:17:33
(UTC+02:00)

ISS - Pass Details

Date: 02 January 2019
Orbit: 404 x 407 km, 51.6° (Epoch: 16 January)

Event Time Altitude Azimuth Distance (km) Brightness Sun altitude
Exits shadow 06:37:00 32° 320° (NW) 725 -3.0 -15.5°
Maximum altitude 06:37:51 39° 358° (N) 628 -3.1 -15.4°
Drops below altitude 10° 06:40:59 10° 69° (ENE) 1,473 -0.2 -14.9°
Sets 06:43:09 0° 78° (ENE) 2,333 1.1 -14.5°
